Simultaneous Nadir Overpasses (SNOs) Predictions

Prediction of SNOs between NOAA-19 and METOP-C Satellite Orbit:

Table of predicted SNOs for the next 14.0 days since TLE Epoch: 8/17/2024
Index Date (NOAA-19) Time (NOAA-19) Lat,Lon (NOAA-19) SZA (NOAA-19 ) Date (METOP-C) Time (METOP-C) Lat,Lon (METOP-C) SZA (METOP-C ) Distance(km) Time Diff (sec)
1 08/24/2024 07:07:02 75.74, 72.52 64.77 08/24/2024 07:08:15 75.76, 72.60 64.79 3.06 73
2 08/24/2024 07:57:55 -76.05,-119.15 114.92 08/24/2024 07:58:50 -76.06,-119.09 114.91 1.96 55
3 08/24/2024 08:48:42 76.53, 49.94 65.59 08/24/2024 08:49:20 76.52, 49.90 65.58 1.59 38
4 08/24/2024 09:39:33 -76.90,-141.27 114.02 08/24/2024 09:39:53 -76.89,-141.34 114.03 2.10 20
5 08/24/2024 10:30:28 77.03, 26.55 66.14 08/24/2024 10:30:30 77.03, 26.57 66.14 0.33 2
6 08/24/2024 11:21:21 -77.30,-164.95 113.56 08/24/2024 11:21:05 -77.30,-164.95 113.56 0.08 16
7 08/24/2024 12:12:15 77.47, 3.13 66.64 08/24/2024 12:11:41 77.49, 3.20 66.65 2.20 34
8 08/24/2024 13:03:10 -77.65, 171.28 113.15 08/24/2024 13:02:18 -77.66, 171.36 113.14 2.17 52



Historial Predications of SNOs between NOAA-19 and METOP-C
